Regional Weather Roundup
Issued by NWS

Home | Current Version | Previous Version | Text Only | Print | Product List | Glossary Off
Versions: 1 2 3 4 5 6 7 8 9 10 11 12 13 14 15 16 17 18 19 20 21 22 23 24 25 26 27 28 29 30 31 32 33 34 35 36 37 38 39 40 41 42 43 44 45 46 47 48 49 50

000
ASUS43 KMKX 230500
RWRWI

WISCONSIN REGIONAL WEATHER ROUNDUP
NATIONAL WEATHER SERVICE MILWAUKEE/SULLIVAN WI
1200 AM CDT THU OCT 23 2014

NOTE: "FAIR" INDICATES FEW OR NO CLOUDS BELOW 12,000 FEET WITH NO
SIGNIFICANT WEATHER AND/OR OBSTRUCTIONS TO VISIBILITY.

WIZ001-002-006>008-014>016-023>028-230600-
NORTHWEST WISCONSIN

CITY           SKY/WX    TMP DP  RH WIND       PRES   REMARKS
SUPERIOR ARPT  MOCLDY    49  36  60 S3        30.03S
ASHLAND        CLOUDY    53  35  50 S9        30.06F
HAYWARD        LGT RAIN  50  40  68 S12       30.08F
SIREN          CLOUDY    53  37  55 S9G18     30.05F
CUMBERLAND     CLOUDY    50  37  62 SE8       30.08F
RICE LAKE      CLOUDY    48  41  75 E7        30.11F
CHETEK         CLOUDY    49  42  76 SE3       30.12R
LADYSMITH      LGT RAIN  48  41  74 SE10      30.12F
EAU CLAIRE     NOT AVBL
MENOMONIE      CLOUDY    52  42  68 W3        30.12R
NEW RICHMOND   CLOUDY    53  38  57 SE9       30.06F
OSCEOLA        CLOUDY    54  39  58 SE7       30.07F
$$

WIZ003>005-009-010-017-018-230600-
NORTH CENTRAL WISCONSIN

CITY           SKY/WX    TMP DP  RH WIND       PRES   REMARKS
MANITOWISH WTR PTCLDY    45  36  70 S10G16    30.12F
ARBOR VITAE    MOCLDY    46  37  70 S10       30.13F
WOODRUFF       MOCLDY    46  37  70 S10       30.13F
RHINELANDER    MOCLDY    42  35  76 S8        30.16F
EAGLE RIVER    MOCLDY    39  33  76 CALM      30.15F
LAND O LAKES   PTCLDY    43  35  74 S7        30.15F
PHILLIPS       CLOUDY    47  36  65 S9        30.13S
TOMAHAWK       MOCLDY    42  36  76 CALM      30.16F
MEDFORD        MOCLDY    43  35  75 SE8       30.15F
MERRILL        PTCLDY    41  37  86 SE6       30.18S
$$

WIZ029-030-035-036-043>047-230600-
CENTRAL WISCONSIN

CITY           SKY/WX    TMP DP  RH WIND       PRES   REMARKS
WAUSAU         CLEAR     39  36  89 E6        30.17F WCI  35
MOSINEE        CLEAR     39  37  93 SE7       30.19F WCI  34
MARSHFIELD     CLEAR     45  36  70 S8        30.16F
STEVENS POINT  CLEAR     38  36  89 SE6       30.20S WCI  34
WAUPACA        CLEAR     41  39  91 SE7       30.22F
WAUTOMA        NOT AVBL
WISC RAPIDS    CLEAR     42  36  79 SE7       30.19F
CAMP DOUGLAS   NOT AVBL
$$

WIZ011>013-019>022-031-037>040-048>050-230600-
NORTHEAST WISCONSIN

CITY           SKY/WX    TMP DP  RH WIND       PRES   REMARKS
ANTIGO         CLEAR     35  35  99 S7        30.20S WCI  29
SHAWANO        CLEAR     40  37  89 CALM      30.22F
OCONTO         CLEAR     42  40  95 S5        30.23F
STURGEON BAY   CLEAR     39  36  87 S7        30.25S WCI  34
GREEN BAY      CLEAR     37  35  92 S5        30.23F WCI  33
MANITOWOC      NOT AVBL
APPLETON       CLEAR     39  37  93 S6        30.23F WCI  35
CLINTONVILLE   CLEAR     36  34  93 CALM      30.22F
OSHKOSH        CLEAR     38  37  97 S6        30.22F WCI  33
$$

WIZ032>034-041-042-053>061-230600-
SOUTHWEST WISCONSIN

CITY           SKY/WX    TMP DP  RH WIND       PRES   REMARKS
LA CROSSE      MOCLDY    53  37  54 S6        30.13F
SPARTA         PTCLDY    47  35  61 S5        30.16F
VIROQUA        MOCLDY    47  36  65 SE6       30.16F
BOSCOBEL       PTCLDY    40  36  86 CALM      30.18F
PRAIRIE DU CHI MOCLDY    49  36  61 E7        30.17F
PLATTEVILLE    PTCLDY    44  35  70 SE9       30.20F
$$

WIZ056-057-062-063-064-067-068-230600-
SOUTH CENTRAL WISCONSIN

CITY           SKY/WX    TMP DP  RH WIND       PRES   REMARKS
REEDSBURG      CLEAR     45  35  67 CALM      30.19S
BARABOO/DELLS  CLEAR     44  34  68 S5        30.20R
LONE ROCK      NOT AVBL
MINERAL POINT  PTCLDY    43  34  70 SE8       30.20S
MADISON        CLEAR     42  38  85 S9        30.22F
MIDDLETON      CLEAR     39  35  85 SE6       30.22F WCI  35
WATERTOWN      CLEAR     36  36  99 CALM      30.24F
MONROE         CLEAR     41  36  81 SE9       30.22S
JANESVILLE     CLEAR     37  36  93 SE3       30.23F
$$

WIZ051-052-058>065-066-070>072-230600-
SOUTHEAST WISCONSIN

CITY           SKY/WX    TMP DP  RH WIND       PRES   REMARKS
MILWAUKEE      CLEAR     35  32  88 CALM      30.26F
WAUKESHA       CLEAR     36  36 100 S3        30.27S
MILWAUKEE/TIMM CLEAR     34  32  93 CALM      30.27F
RACINE         CLEAR     34  31  88 CALM      30.28F
BURLINGTON       N/A     30  30 100 CALM      30.26F FOG
KENOSHA        CLEAR     34  32  92 CALM      30.26F
FOND DU LAC    CLEAR     39  36  89 S8        30.23F WCI  33
SHEBOYGAN      PTCLDY    32  31  96 CALM      30.25F FOG
WEST BEND      PTCLDY    32  32 100 CALM      30.25F
JUNEAU         CLEAR     37  36  96 SE8       30.25S FOG     WCI  31
$$

LSZ147-162-230600-
LAKE SUPERIOR

STATION/POSITION TIME  TEMP    WIND        PRES    WAVE
                       AIR SEA DIR/SP/G            HT/PER
                 (UTC) (F)     (DEG/KT/KT) (MB)    (FT/S)
W MID LAKE BUOY  0350   48 46  170/  8/ 10 1019.0F   2/ 3
DEVILS ISLAND    0400   53     180/  7/  9 1018.4F
PORT WING        0440   54     170/  7/ 10 1017.3F
SAXON HARBOR     0400   55     210/  6/ 18 1017.6F
$$

LMZ867-665-643>646-230600-
LAKE MICHIGAN

STATION/POSITION TIME  TEMP    WIND        PRES    WAVE
                       AIR SEA DIR/SP/G            HT/PER
                 (UTC) (F)     (DEG/KT/KT) (MB)    (FT/S)
CHAMBERS ISLAND  0400   42     150/  2/  5 1024.7F
N MID LAKE BUOY  0350   47 51  170/ 10/ 12 1025.3F   1
NORTHPORT PIER   0400   39     210/  1/  3 1024.7S
SISTER BAY       0413             CALM       N/A
ALGOMA LAKESHORE 0356          240/  6/  8   N/A
KEWAUNEE LAKESHO 0400   44     200/  5/  6 1023.9F
SHEBOYGAN LAKESH 0400   44 51  220/  3/  4 1025.6F
PORT WASHINGTON  0440   40     270/  3/  5 1025.4F
ATWATER BUOY     0400   49     190/  6/  8 1025.9S
MILWAUKEE LAKESH 0400   46     210/  3/  4   N/A
S MID LAKE BUOY  0350   51 54  120/ 10/ 14 1025.5F   1/ 3
KENOSHA   LAKESH 0400   47     190/  5/  7 1025.1S
$$

TC  - TEMPERATURE IN CELSIUS
VSB - VISIBILITY IN STATUTE MILES
WCI - WIND CHILL INDEX
HX  - HEAT INDEX




USA.gov is the U.S. government's official web portal to all federal, state and local government web resources and services.